Regional Weather Roundup
Issued by NWS Cleveland, OH

Home | Current Version | Previous Version | Graphics & Text | Print | Product List | Glossary On
Versions: 1 2 3 4 5 6 7 8 9 10 11 12 13 14 15 16 17 18 19 20 21 22 23 24 25 26 27 28 29 30 31 32 33 34 35 36 37 38 39 40 41 42 43 44 45 46 47 48 49 50
883
ASUS41 KCLE 221510
RWRCLE
OHIO REGIONAL WEATHER ROUNDUP
NATIONAL WEATHER SERVICE CLEVELAND, OH
1100 AM EDT TUE AUG 22 2017

NOTE: "FAIR" INDICATES FEW OR NO CLOUDS BELOW 12,000 FEET WITH NO
SIGNIFICANT WEATHER AND/OR OBSTRUCTIONS TO VISIBILITY.

OHZ001>008-015>018-024>027-034-035-043-044-221600-
   NORTHWEST OHIO

CITY           SKY/WX    TMP DP  RH WIND       PRES   REMARKS
DEFIANCE       LGT RAIN  71  68  90 W6        29.88S
FINDLAY        LGT RAIN  75  68  78 SW13G21   29.88S
TOLEDO EXPRESS CLOUDY    73  70  90 SW15      29.86R
TOLEDO EXEC    CLOUDY    75  70  84 SW13      29.86R
LIMA           LGT RAIN  75  70  84 SW13      29.90F
$$

OHZ009>014-019>023-028>033-038-089-221600-
   NORTHEAST OHIO

CITY           SKY/WX    TMP DP  RH WIND       PRES   REMARKS
CLE-HOPKINS    CLOUDY    81  70  69 SW14      29.88F
CLE-LAKEFRONT  CLOUDY    80  69  69 SW16G25   29.85S
CUY CO. ARPT   CLOUDY    81  72  74 W16       29.87F
LORAIN-ELYRIA  PTSUNNY   78  67  68 SW16      29.88S
ASHTABULA      CLOUDY    79  72  79 SW12      29.88F
AKRON-CANTON   PTSUNNY   84  69  60 SW15G30   29.92F
WOOSTER        MOSUNNY   79  72  79 W10       29.92S
MANSFIELD      CLOUDY    77  72  84 SW15      29.92S
YOUNGSTOWN     TSTM      82  68  62 SW18G24   29.91F
$$

OHZ042-051>053-060>062-070>072-077>081-221600-
  SOUTHWEST OHIO

CITY           SKY/WX    TMP DP  RH WIND       PRES   REMARKS
CINC-COVINGTON PTSUNNY   83  75  77 SW14G23   29.97F HX  90
CINC-LUNKEN    CLOUDY    83  75  77 SW13      29.95F HX  90
HAMILTON       PTSUNNY   84  74  71 SW13G20   29.95F HX  91
DAYTON         TSTM      77  72  84 W17G31    29.95S FOG
WRIGHT-PAT AFB CLOUDY    81  73  77 SW15G23   29.93F
DAYTON GENERAL PTSUNNY   82  71  69 SW16      29.94F
WILMINGTON     PTSUNNY   83  75  77 SW14      29.96S HX  90
$$

OHZ036-037-039>041-045>050-054>059-063>069-073>076-082>088-221600-
  CENTRAL AND SOUTHEAST OHIO

CITY           SKY/WX    TMP DP  RH WIND       PRES   REMARKS
COLUMBUS       PTSUNNY   84  74  71 SW14      29.93F HX  91
OSU AIRPORT    CLOUDY    80  73  79 SW16G22   29.93F
BOLTON FIELD   PTSUNNY   81  73  78 W13G24    29.95F
RICKENBACK AFB MOSUNNY   83  73  72 SW15G21   29.94S
NEWARK         MOSUNNY   82  72  71 SW14G20   29.93F
MARION         PTSUNNY   78  71  79 SW12      29.92F
LANCASTER      MOSUNNY   83  72  69 SW9       29.96F
ZANESVILLE     LGT RAIN  81  70  69 SW10      29.96F
NEW PHILLY     NOT AVBL
$$




USA.gov is the U.S. government's official web portal to all federal, state and local government web resources and services.